Gaylord, MI

12:09 PM EDT on April 25, 2017 (GMT -0400)
Otsego County

Weather History for KGLR - March, 2014

Change the Weather History Date:

Tuesday, March 25, 2014

  Actual Average Record
Temperature  
Mean Temperature 8 °F -  
Max Temperature 17 °F 43 °F 65 °F (1987)
Min Temperature -2 °F 19 °F -11 °F (1983)
Degree Days  
Heating Degree Days 58    
Moisture  
Dew Point 5 °F    
Average Humidity 73    
Maximum Humidity 91    
Minimum Humidity 45    
Precipitation  
Precipitation 0.00 in - - ()
Sea Level Pressure  
Sea Level Pressure 29.95 in    
Wind  
Wind Speed 5 mph (WNW)    
Max Wind Speed 13 mph    
Max Gust Speed 24 mph    
Visibility 6 miles    
Events Snow    
Averages and records for this station are not official NWS values.
T = Trace of Precipitation, MM = Missing Value Source: NWS Daily Summary

Daily Weather History Graph

Daily Weather History Graph

Search for Another Location

Airport or City:

Trip Planner

Search our weather history database for the weather conditions in past years. The results will help you decide how hot, cold, wet, or windy it might be!

Date:

Astronomy

Mar. 25, 2014 Rise Set
Actual Time 7:32 AM EDT 7:57 PM EDT
Civil Twilight 7:03 AM EDT 8:27 PM EDT
Nautical Twilight 6:28 AM EDT 9:01 PM EDT
Astronomical Twilight 5:52 AM EDT 9:37 PM EDT
Moon 4:06 AM EDT 2:14 PM EDT
Length of Visible Light 13h 24m
Length of Day
12h 25m
Waning Crescent, 32% of the Moon is Illuminated
Mar 25
Waning Crescent
Mar 30
New
Apr 7
First Quarter
Apr 15
Full
Apr 22
Last Quarter

Hourly Weather History & Observations

Time (EDT) Temp. Windchill Dew Point Humidity Pressure Visibility Wind Dir Wind Speed Gust Speed Precip Events Conditions
12:53 AM 14.0 °F 3.9 °F 7.0 °F 74% 29.97 in 9.0 mi SW 6.9 mph - N/A   Overcast
1:14 AM 16.0 °F 8.8 °F 10.0 °F 77% 29.89 in 5.0 mi SSW 4.6 mph - 0.00 in   Haze
1:35 AM 15.1 °F 9.4 °F 12.0 °F 88% 29.88 in 1.8 mi SSW 3.5 mph - 0.00 in Snow Light Snow
1:53 AM 16.0 °F 8.8 °F 12.9 °F 88% 29.94 in 1.5 mi SSW 4.6 mph - 0.00 in Snow Light Snow
2:23 AM 15.1 °F - 12.9 °F 91% 29.86 in 3.0 mi Calm Calm - 0.00 in Snow Light Snow
2:53 AM 15.1 °F - 12.9 °F 91% 29.92 in 5.0 mi Calm Calm - 0.00 in   Overcast
3:34 AM 15.1 °F 7.7 °F 12.0 °F 88% 29.84 in 8.0 mi North 4.6 mph - N/A   Overcast
3:43 AM 15.1 °F 9.4 °F 12.0 °F 88% 29.84 in 5.0 mi NNE 3.5 mph - 0.00 in Snow Light Snow
3:53 AM 15.1 °F 6.4 °F 12.0 °F 88% 29.91 in 2.5 mi Variable 5.8 mph - 0.00 in Snow Light Snow
4:10 AM 14.0 °F - 10.0 °F 84% 29.83 in 2.5 mi Calm Calm - 0.00 in Snow Light Snow
4:17 AM 14.0 °F - 10.0 °F 84% 29.83 in 4.0 mi Calm Calm - 0.00 in Snow Light Snow
4:25 AM 14.0 °F - 10.0 °F 84% 29.83 in 5.0 mi Calm Calm - 0.00 in   Overcast
4:53 AM 10.9 °F - 7.0 °F 84% 29.90 in 10.0 mi Calm Calm - 0.00 in   Mostly Cloudy
5:53 AM 9.0 °F - 6.1 °F 88% 29.90 in 6.0 mi Calm Calm - N/A   Overcast
6:53 AM 3.0 °F - -0.0 °F 87% 29.90 in 4.0 mi Calm Calm - N/A   Clear
7:53 AM -2.0 °F -10.1 °F -5.1 °F 87% 29.92 in 7.0 mi West 3.5 mph - N/A   Clear
8:53 AM 10.9 °F 1.4 °F 6.1 °F 81% 29.92 in 10.0 mi WNW 5.8 mph - N/A   Mostly Cloudy
9:44 AM 15.1 °F 2.5 °F 9.0 °F 77% 29.84 in 1.8 mi West 10.4 mph - 0.00 in Snow Light Snow
9:53 AM 16.0 °F 5.3 °F 10.0 °F 77% 29.93 in 1.2 mi West 8.1 mph - 0.00 in Snow Light Snow
10:03 AM 15.1 °F 2.5 °F 10.0 °F 80% 29.85 in 1.0 mi West 10.4 mph - 0.00 in Snow Light Snow
10:53 AM 15.1 °F 2.5 °F 9.0 °F 77% 29.96 in 1.2 mi WNW 10.4 mph 17.3 mph 0.00 in Snow Light Snow
11:06 AM 15.1 °F 3.3 °F 9.0 °F 77% 29.88 in 1.8 mi NNW 9.2 mph 18.4 mph 0.00 in Snow Light Snow
11:11 AM 15.1 °F 5.2 °F 8.1 °F 74% 29.88 in 3.0 mi Variable 6.9 mph 18.4 mph 0.00 in Snow Light Snow
11:53 AM 17.1 °F 5.8 °F 7.0 °F 65% 29.98 in 4.0 mi NW 9.2 mph 19.6 mph 0.00 in Snow Light Snow
12:25 PM 16.0 °F 2.3 °F -0.0 °F 49% 29.91 in 10.0 mi NW 12.7 mph 24.2 mph 0.00 in   Overcast
12:53 PM 17.1 °F 5.0 °F -0.9 °F 45% 30.00 in 10.0 mi NNW 10.4 mph 20.7 mph 0.00 in   Overcast
1:53 PM 16.0 °F 2.9 °F 1.9 °F 54% 30.01 in 10.0 mi NW 11.5 mph 19.6 mph 0.00 in   Overcast
2:53 PM 15.1 °F 2.5 °F -0.0 °F 51% 30.01 in 10.0 mi NNW 10.4 mph 19.6 mph N/A   Overcast
3:53 PM 15.1 °F 5.2 °F -0.0 °F 51% 30.02 in 10.0 mi Variable 6.9 mph 19.6 mph 0.00 in   Overcast
4:53 PM 14.0 °F 2.9 °F -0.9 °F 52% 30.04 in 9.0 mi NW 8.1 mph - 0.00 in   Overcast
5:53 PM 14.0 °F 2.9 °F -2.9 °F 47% 30.06 in 10.0 mi NNW 8.1 mph 21.9 mph N/A   Overcast
6:53 PM 12.0 °F 0.5 °F -2.0 °F 53% 30.09 in 10.0 mi NW 8.1 mph - N/A   Overcast
7:53 PM 10.9 °F 2.9 °F -4.0 °F 51% 30.12 in 10.0 mi Variable 4.6 mph - N/A   Partly Cloudy
8:53 PM 9.0 °F -0.9 °F -4.0 °F 56% 30.13 in 10.0 mi WNW 5.8 mph - N/A   Clear
9:53 PM 7.0 °F 0.1 °F -2.9 °F 64% 30.14 in 10.0 mi NW 3.5 mph - N/A   Scattered Clouds
10:53 PM 5.0 °F - -4.0 °F 66% 30.17 in 10.0 mi Calm Calm - N/A   Clear
11:53 PM 3.9 °F - -4.0 °F 70% 30.18 in 10.0 mi Calm Calm - N/A   Partly Cloudy